Location: Rounton
(54.4000°N, 1.3500°W)
Time: 02:34:05
(UTC+00:00)

Explorer 7 - Pass Details

Date: 06 December 2021
Orbit: 483 x 674 km, 50.3° (Epoch: 18 January)

Event Time Altitude Azimuth Distance (km) Brightness Sun altitude
Exits shadow 07:00:03 - 248° (WSW) 2,571 9.8 -9.4°
Reaches altitude 10° 07:01:53 10° 243° (WSW) 1,862 9.2 -9.2°
Maximum altitude 07:05:55 44° 171° (S) 756 7.8 -8.7°
Drops below altitude 10° 07:09:43 10° 99° (E) 1,758 10.8 -8.2°
Sets 07:11:55 0° 93° (E) 2,620 11.6 -7.9°
